Precipitable_Water
0.57 0.57 0.57 0.57 0.57 0.56 0.56 0.55 0.55 0.55 0.55 0.54 0.53 0.52 0.51 0.51 0.51 0.51 0.50 0.50 0.49 0.48 0.47 0.46 0.46 0.46 0.47 0.48 0.49 0.51 0.51 0.41 0.35 0.31 0.26 0.19 0.19 0.23 0.32 0.27 0.44 0.49 0.54 0.53 0.50 0.48 0.58 0.74 0.79 0.88 0.98 1.04 1.12 1.15 1.33 1.43 1.52 1.42 1.11 1.04 0.99 1.07 1.06 1.24 1.22 1.32 1.41 1.23 1.30 1.41 1.44 1.31 1.18 1.34 1.33 1.35 1.17 1.08 1.00 1.03 1.09 1.17 1.15 1.24 1.31 1.46 1.49 1.54
0.56 0.56 0.56 0.56 0.56 0.55 0.55 0.55 0.56 0.57 0.57 0.56 0.55 0.53 0.52 0.50 0.49 0.49 0.49 0.48 0.48 0.46 0.46 0.47 0.46 0.46 0.46 0.47 0.49 0.51 0.47 0.38 0.29 0.31 0.26 0.28 0.26 0.23 0.28 0.29 0.48 0.48 0.51 0.40 0.38 0.40 0.44 0.64 0.71 0.83 0.94 0.93 1.17 1.08 1.32 1.27 1.53 1.20 1.14 1.08 0.94 1.12 1.26 1.47 1.50 1.50 1.37 1.31 1.36 1.43 1.44 1.33 1.28 1.36 1.33 1.13 1.00 0.96 0.89 0.96 1.01 1.01 1.11 1.29 1.37 1.42 1.44 1.48
0.56 0.55 0.55 0.55 0.55 0.54 0.54 0.54 0.56 0.57 0.58 0.57 0.56 0.55 0.53 0.52 0.50 0.49 0.48 0.48 0.47 0.47 0.46 0.46 0.46 0.46 0.45 0.48 0.48 0.49 0.42 0.29 0.32 0.27 0.41 0.44 0.36 0.28 0.28 0.29 0.43 0.57 0.42 0.34 0.40 0.41 0.35 0.51 0.67 0.85 0.93 0.93 1.04 0.98 1.20 1.21 1.39 1.33 1.17 0.99 1.07 1.27 1.44 1.57 1.60 1.50 1.54 1.47 1.35 1.40 1.40 1.36 1.38 1.36 1.43 1.12 0.96 0.96 0.83 0.83 0.89 0.91 0.95 1.15 1.29 1.37 1.40 1.43
0.56 0.55 0.55 0.54 0.54 0.53 0.53 0.53 0.55 0.57 0.58 0.58 0.58 0.57 0.55 0.54 0.52 0.50 0.48 0.47 0.46 0.46 0.46 0.45 0.45 0.45 0.45 0.46 0.48 0.46 0.37 0.26 0.22 0.39 0.48 0.49 0.41 0.31 0.30 0.30 0.39 0.51 0.44 0.35 0.37 0.41 0.45 0.48 0.68 0.90 0.89 0.87 0.90 1.07 1.07 1.26 1.17 1.33 1.20 1.05 1.17 1.34 1.36 1.57 1.58 1.57 1.58 1.55 1.42 1.41 1.45 1.36 1.41 1.42 1.35 1.15 0.94 0.92 0.90 0.93 0.84 0.84 0.96 1.15 1.25 1.30 1.35 1.36
0.55 0.55 0.54 0.53 0.53 0.52 0.52 0.52 0.53 0.55 0.57 0.58 0.58 0.58 0.57 0.55 0.54 0.53 0.51 0.50 0.47 0.46 0.45 0.45 0.44 0.44 0.45 0.46 0.44 0.44 0.23 0.22 0.28 0.47 0.51 0.54 0.46 0.33 0.33 0.32 0.37 0.47 0.37 0.31 0.34 0.40 0.48 0.59 0.72 0.85 0.80 0.72 0.81 0.98 1.02 1.23 1.37 1.29 1.15 1.27 1.34 1.41 1.35 1.57 1.63 1.59 1.56 1.61 1.50 1.43 1.33 1.31 1.54 1.44 1.28 1.16 0.86 0.79 0.90 0.98 1.01 0.98 1.07 1.15 1.17 1.24 1.31 1.29
0.55 0.55 0.54 0.54 0.54 0.53 0.52 0.51 0.52 0.54 0.55 0.57 0.57 0.57 0.57 0.56 0.55 0.54 0.53 0.52 0.51 0.49 0.48 0.47 0.46 0.46 0.47 0.46 0.43 0.36 0.19 0.19 0.53 0.54 0.72 0.60 0.54 0.36 0.35 0.39 0.45 0.44 0.31 0.26 0.26 0.33 0.52 0.66 0.73 0.68 0.66 0.65 0.70 0.75 0.96 1.15 1.35 0.97 1.22 1.29 1.38 1.42 1.36 1.57 1.64 1.58 1.59 1.51 1.44 1.36 1.41 1.50 1.36 1.31 1.32 1.18 1.02 1.02 1.16 1.11 1.08 1.10 1.12 1.21 1.23 1.22 1.24 1.23
0.53 0.53 0.53 0.53 0.53 0.52 0.52 0.51 0.51 0.52 0.54 0.56 0.56 0.56 0.56 0.56 0.55 0.54 0.53 0.52 0.52 0.51 0.50 0.49 0.49 0.50 0.47 0.48 0.43 0.28 0.13 0.16 0.30 0.46 0.67 0.70 0.62 0.43 0.36 0.44 0.53 0.39 0.29 0.24 0.23 0.28 0.48 0.61 0.65 0.62 0.60 0.62 0.67 0.74 0.96 1.06 1.27 1.14 1.07 1.30 1.34 1.45 1.36 1.56 1.62 1.70 1.61 1.52 1.43 1.50 1.55 1.37 1.33 1.15 1.30 1.16 1.19 1.17 1.20 1.20 1.16 1.21 1.25 1.23 1.14 1.19 1.20 1.19
0.52 0.52 0.52 0.52 0.52 0.52 0.52 0.51 0.50 0.51 0.52 0.53 0.55 0.55 0.55 0.54 0.54 0.52 0.52 0.52 0.52 0.52 0.51 0.50 0.50 0.50 0.51 0.41 0.26 0.13 0.18 0.29 0.43 0.50 0.63 0.67 0.65 0.53 0.52 0.45 0.40 0.32 0.24 0.22 0.23 0.27 0.45 0.52 0.56 0.63 0.58 0.55 0.64 0.67 0.95 1.00 1.16 1.09 1.08 1.27 1.34 1.48 1.50 1.58 1.66 1.64 1.63 1.59 1.61 1.56 1.40 1.33 1.38 1.30 1.27 1.14 1.17 1.17 1.22 1.22 1.16 1.22 1.21 1.18 1.13 1.15 1.18 1.19
0.49 0.51 0.51 0.51 0.51 0.51 0.51 0.51 0.51 0.50 0.50 0.51 0.52 0.52 0.52 0.52 0.53 0.52 0.51 0.52 0.52 0.52 0.51 0.51 0.50 0.51 0.53 0.41 0.20 0.15 0.26 0.45 0.52 0.63 0.65 0.60 0.61 0.59 0.56 0.39 0.33 0.21 0.19 0.22 0.24 0.31 0.44 0.49 0.57 0.62 0.57 0.59 0.68 0.76 0.94 0.91 0.92 1.19 1.19 1.28 1.36 1.42 1.50 1.63 1.55 1.60 1.57 1.59 1.60 1.46 1.36 1.43 1.46 1.49 1.23 1.22 1.17 1.22 1.26 1.19 1.12 1.14 1.11 1.08 1.09 1.13 1.13 1.15
0.48 0.49 0.50 0.51 0.51 0.51 0.51 0.51 0.50 0.49 0.48 0.49 0.50 0.50 0.51 0.53 0.54 0.54 0.53 0.53 0.53 0.53 0.52 0.50 0.51 0.51 0.43 0.28 0.18 0.16 0.44 0.65 0.69 0.71 0.64 0.58 0.62 0.55 0.50 0.44 0.35 0.21 0.17 0.20 0.24 0.26 0.35 0.48 0.58 0.70 0.69 0.65 0.68 0.70 0.92 0.94 0.99 1.28 1.26 1.30 1.36 1.44 1.47 1.59 1.49 1.53 1.58 1.58 1.60 1.39 1.31 1.36 1.51 1.39 1.06 1.25 1.24 1.26 1.23 1.18 1.13 1.04 1.00 1.04 1.06 1.12 1.15 1.13
0.47 0.47 0.48 0.50 0.51 0.51 0.51 0.50 0.49 0.48 0.47 0.47 0.49 0.51 0.54 0.55 0.56 0.56 0.55 0.54 0.53 0.54 0.53 0.52 0.53 0.50 0.31 0.27 0.12 0.18 0.48 0.67 0.63 0.68 0.65 0.61 0.58 0.50 0.43 0.42 0.39 0.23 0.17 0.19 0.22 0.28 0.36 0.56 0.70 0.71 0.67 0.56 0.69 0.81 0.96 1.05 1.26 1.23 1.27 1.31 1.31 1.39 1.48 1.57 1.59 1.58 1.64 1.49 1.57 1.52 1.33 1.46 1.50 1.37 1.13 1.21 1.30 1.25 1.17 1.18 1.11 1.04 0.98 0.99 1.05 1.08 1.13 1.13
0.47 0.46 0.47 0.48 0.50 0.51 0.51 0.50 0.49 0.48 0.46 0.47 0.50 0.53 0.56 0.56 0.56 0.56 0.56 0.57 0.58 0.57 0.58 0.58 0.58 0.51 0.41 0.25 0.15 0.20 0.49 0.49 0.48 0.46 0.50 0.56 0.55 0.50 0.45 0.41 0.38 0.26 0.19 0.16 0.22 0.36 0.53 0.68 0.71 0.68 0.53 0.65 0.86 0.97 0.98 1.25 1.22 1.23 1.27 1.06 1.17 1.28 1.28 1.52 1.44 1.53 1.61 1.45 1.58 1.53 1.32 1.23 1.33 1.18 1.24 1.28 1.33 1.27 1.20 1.16 1.11 1.03 1.01 1.00 1.04 1.07 1.09 1.10
0.47 0.46 0.46 0.47 0.49 0.50 0.51 0.50 0.49 0.47 0.47 0.49 0.52 0.55 0.57 0.57 0.57 0.57 0.59 0.59 0.60 0.60 0.61 0.61 0.62 0.52 0.35 0.15 0.14 0.23 0.31 0.34 0.39 0.41 0.50 0.58 0.56 0.51 0.47 0.43 0.36 0.28 0.21 0.18 0.22 0.41 0.64 0.68 0.71 0.64 0.64 0.61 0.85 0.81 1.12 1.30 1.23 1.28 1.23 1.10 1.03 1.08 1.16 1.44 1.55 1.57 1.53 1.53 1.54 1.45 0.93 1.07 1.18 1.27 1.28 1.32 1.31 1.27 1.19 1.16 1.10 1.04 1.02 1.00 1.02 1.04 1.06 1.12
0.47 0.46 0.45 0.46 0.48 0.50 0.50 0.49 0.48 0.47 0.47 0.51 0.55 0.57 0.59 0.59 0.57 0.58 0.61 0.61 0.64 0.64 0.64 0.64 0.62 0.53 0.40 0.23 0.23 0.32 0.41 0.47 0.49 0.41 0.39 0.51 0.43 0.44 0.44 0.40 0.35 0.27 0.24 0.23 0.25 0.48 0.63 0.67 0.68 0.64 0.65 0.56 0.76 1.26 1.10 1.14 1.25 1.04 1.15 1.12 0.93 0.87 0.98 1.40 1.42 1.52 1.36 1.57 1.54 1.47 0.96 1.05 1.18 1.24 1.29 1.33 1.32 1.21 1.11 1.13 1.10 1.04 0.99 0.96 0.99 1.01 1.03 1.07
0.49 0.46 0.45 0.45 0.47 0.49 0.49 0.48 0.47 0.46 0.50 0.54 0.56 0.57 0.58 0.58 0.58 0.61 0.64 0.67 0.69 0.70 0.69 0.70 0.68 0.53 0.36 0.30 0.43 0.48 0.59 0.60 0.41 0.37 0.38 0.36 0.32 0.36 0.36 0.35 0.29 0.24 0.21 0.22 0.27 0.47 0.63 0.66 0.61 0.52 0.50 0.64 0.83 0.95 0.86 0.92 1.03 1.10 0.87 0.75 0.92 0.86 1.02 1.29 1.48 1.46 1.27 1.46 1.56 1.35 1.02 1.05 1.16 1.22 1.28 1.36 1.30 1.21 1.09 1.11 1.10 1.01 0.93 0.92 0.95 0.97 1.00 1.02
0.50 0.46 0.45 0.45 0.47 0.48 0.48 0.46 0.45 0.48 0.53 0.55 0.55 0.54 0.57 0.60 0.62 0.67 0.70 0.72 0.75 0.72 0.71 0.63 0.59 0.54 0.39 0.29 0.35 0.56 0.47 0.37 0.36 0.39 0.46 0.38 0.33 0.31 0.35 0.34 0.27 0.22 0.22 0.22 0.35 0.49 0.56 0.56 0.49 0.49 0.66 0.85 0.76 0.73 0.76 0.79 0.83 0.97 0.85 0.76 0.80 0.94 1.03 1.11 1.32 1.46 1.52 1.43 1.51 1.34 1.00 1.10 1.12 1.26 1.28 1.35 1.27 1.19 1.12 1.10 1.08 0.96 0.89 0.89 0.92 0.96 0.97 1.00
0.50 0.46 0.44 0.44 0.46 0.47 0.48 0.47 0.47 0.51 0.52 0.52 0.50 0.51 0.56 0.58 0.64 0.73 0.78 0.77 0.75 0.74 0.66 0.51 0.59 0.57 0.26 0.44 0.57 0.42 0.39 0.43 0.47 0.37 0.35 0.37 0.38 0.37 0.35 0.31 0.23 0.18 0.21 0.26 0.40 0.52 0.51 0.44 0.49 0.49 0.76 0.72 0.72 0.75 0.63 0.58 0.62 0.75 0.90 0.78 0.89 0.86 0.97 0.94 1.23 1.40 1.45 1.40 1.22 1.31 1.12 1.06 1.11 1.21 1.27 1.32 1.30 1.19 1.10 1.10 1.06 0.95 0.87 0.89 0.92 0.96 0.94 0.98
0.49 0.45 0.43 0.44 0.45 0.47 0.50 0.51 0.51 0.50 0.49 0.49 0.48 0.51 0.53 0.62 0.72 0.79 0.74 0.74 0.73 0.70 0.64 0.73 0.62 0.44 0.25 0.46 0.34 0.35 0.45 0.44 0.43 0.38 0.37 0.38 0.43 0.40 0.36 0.32 0.26 0.21 0.24 0.32 0.44 0.45 0.43 0.40 0.46 0.40 0.52 0.66 0.71 0.65 0.47 0.42 0.57 0.65 0.74 0.74 0.80 0.94 1.00 0.94 0.99 1.23 1.37 1.37 1.25 1.20 1.13 1.11 1.13 1.21 1.28 1.32 1.36 1.20 1.09 1.08 1.02 0.93 0.86 0.89 0.93 0.95 0.95 0.97
0.48 0.44 0.43 0.43 0.44 0.49 0.52 0.54 0.55 0.55 0.53 0.51 0.52 0.60 0.66 0.74 0.77 0.76 0.63 0.59 0.46 0.38 0.30 0.38 0.38 0.26 0.19 0.35 0.43 0.46 0.47 0.49 0.49 0.41 0.34 0.37 0.41 0.43 0.41 0.39 0.30 0.25 0.27 0.32 0.36 0.41 0.41 0.40 0.43 0.37 0.37 0.49 0.55 0.54 0.50 0.64 0.77 0.76 0.78 0.78 0.82 0.79 0.91 0.95 1.13 1.34 1.32 1.21 1.19 1.16 1.03 1.07 1.11 1.16 1.29 1.36 1.37 1.19 1.08 1.05 1.01 0.93 0.84 0.89 0.94 0.95 0.95 0.97
0.46 0.44 0.43 0.42 0.46 0.51 0.53 0.56 0.57 0.57 0.57 0.53 0.54 0.60 0.59 0.43 0.42 0.41 0.56 0.55 0.40 0.36 0.34 0.37 0.41 0.39 0.37 0.40 0.40 0.45 0.53 0.53 0.42 0.40 0.40 0.40 0.41 0.40 0.40 0.37 0.29 0.29 0.31 0.27 0.33 0.39 0.43 0.33 0.31 0.29 0.31 0.36 0.46 0.53 0.62 0.70 0.82 0.85 0.87 0.83 0.82 0.85 0.95 1.12 1.18 1.35 1.40 1.23 1.20 1.20 1.14 1.09 1.09 1.15 1.28 1.36 1.37 1.20 1.03 0.98 0.94 0.89 0.82 0.88 0.93 0.93 0.95 0.97
0.46 0.43 0.43 0.43 0.48 0.52 0.55 0.56 0.58 0.58 0.61 0.61 0.61 0.51 0.39 0.39 0.33 0.30 0.39 0.40 0.46 0.47 0.42 0.38 0.37 0.31 0.31 0.40 0.38 0.38 0.38 0.36 0.38 0.38 0.39 0.48 0.43 0.40 0.37 0.35 0.27 0.23 0.29 0.32 0.32 0.42 0.41 0.31 0.30 0.32 0.35 0.37 0.41 0.51 0.62 0.66 0.76 0.77 0.83 0.80 0.81 0.88 0.86 1.11 1.16 1.36 1.44 1.21 1.18 1.28 1.18 1.09 1.11 1.20 1.32 1.37 1.34 1.13 0.97 0.95 0.91 0.87 0.85 0.89 0.92 0.93 0.94 0.98
0.44 0.43 0.43 0.45 0.49 0.52 0.56 0.57 0.58 0.60 0.65 0.65 0.59 0.48 0.50 0.51 0.56 0.57 0.52 0.37 0.43 0.48 0.46 0.42 0.46 0.37 0.38 0.40 0.41 0.46 0.44 0.35 0.32 0.35 0.40 0.44 0.36 0.33 0.32 0.30 0.25 0.22 0.28 0.32 0.33 0.32 0.29 0.25 0.28 0.34 0.39 0.39 0.40 0.48 0.57 0.60 0.66 0.81 0.80 0.80 0.80 0.86 1.02 1.18 1.20 1.31 1.35 1.26 1.18 1.21 1.17 1.13 1.16 1.21 1.31 1.33 1.32 1.25 1.04 0.99 0.93 0.89 0.88 0.90 0.93 0.94 0.95 0.96
0.43 0.42 0.43 0.47 0.50 0.54 0.55 0.58 0.58 0.63 0.64 0.59 0.50 0.52 0.53 0.62 0.66 0.66 0.60 0.49 0.41 0.49 0.45 0.44 0.39 0.40 0.38 0.44 0.44 0.50 0.35 0.32 0.29 0.33 0.36 0.36 0.33 0.31 0.31 0.27 0.25 0.24 0.26 0.29 0.25 0.25 0.21 0.24 0.29 0.34 0.38 0.38 0.40 0.46 0.52 0.59 0.67 0.72 0.78 0.75 0.68 0.88 0.84 0.82 1.09 1.20 1.30 1.24 1.17 1.22 1.14 1.17 1.26 1.31 1.30 1.38 1.38 1.30 1.15 1.06 1.02 0.96 0.91 0.90 0.92 0.93 0.94 0.94
0.43 0.42 0.42 0.47 0.51 0.53 0.58 0.57 0.59 0.62 0.60 0.57 0.53 0.55 0.62 0.69 0.69 0.66 0.54 0.40 0.38 0.43 0.48 0.50 0.49 0.44 0.40 0.34 0.42 0.40 0.32 0.34 0.37 0.35 0.46 0.38 0.29 0.34 0.29 0.28 0.25 0.24 0.23 0.26 0.27 0.25 0.22 0.26 0.31 0.33 0.33 0.36 0.38 0.44 0.51 0.56 0.57 0.70 0.74 0.74 0.74 0.79 0.87 0.89 0.98 1.15 1.24 1.31 1.35 1.26 1.14 1.13 1.21 1.15 1.20 1.34 1.44 1.36 1.18 1.07 1.05 1.03 1.00 1.00 1.01 0.98 0.98 0.94
0.43 0.41 0.42 0.48 0.50 0.56 0.56 0.57 0.50 0.52 0.59 0.57 0.56 0.63 0.65 0.69 0.72 0.68 0.52 0.44 0.43 0.41 0.54 0.50 0.53 0.44 0.47 0.53 0.48 0.39 0.37 0.37 0.39 0.41 0.45 0.40 0.31 0.30 0.28 0.31 0.27 0.23 0.23 0.25 0.26 0.26 0.25 0.28 0.34 0.31 0.30 0.31 0.36 0.41 0.51 0.53 0.52 0.62 0.79 0.78 0.75 0.83 0.86 0.96 1.06 1.03 0.98 0.98 1.22 1.17 0.89 0.91 1.12 1.15 1.16 1.28 1.34 1.28 1.23 1.05 0.99 0.99 1.01 1.02 1.00 0.98 0.99 0.99
0.43 0.42 0.41 0.47 0.51 0.53 0.55 0.44 0.52 0.55 0.51 0.49 0.54 0.61 0.63 0.70 0.73 0.71 0.52 0.35 0.26 0.34 0.43 0.33 0.47 0.35 0.47 0.33 0.41 0.40 0.41 0.34 0.42 0.42 0.47 0.48 0.44 0.35 0.30 0.27 0.28 0.23 0.26 0.25 0.25 0.26 0.27 0.31 0.31 0.29 0.28 0.27 0.34 0.42 0.47 0.51 0.51 0.56 0.69 0.89 0.88 0.87 0.89 0.93 0.95 0.95 0.79 0.73 1.01 1.22 0.86 0.80 1.10 1.08 1.16 1.24 1.27 1.24 1.22 1.09 1.01 1.00 1.01 1.01 1.01 1.02 1.00 0.96
0.44 0.42 0.42 0.44 0.50 0.52 0.39 0.36 0.53 0.52 0.45 0.50 0.60 0.63 0.61 0.69 0.76 0.68 0.45 0.30 0.23 0.31 0.31 0.37 0.41 0.39 0.43 0.33 0.41 0.49 0.35 0.34 0.52 0.52 0.47 0.45 0.41 0.45 0.28 0.27 0.28 0.28 0.29 0.28 0.25 0.20 0.28 0.28 0.28 0.28 0.26 0.25 0.30 0.37 0.43 0.44 0.49 0.54 0.82 0.88 0.89 0.85 0.82 0.86 0.90 0.90 0.88 1.06 1.13 1.16 1.06 0.86 0.87 1.03 1.18 1.26 1.24 1.21 1.16 1.11 1.05 1.01 1.02 1.01 1.02 1.04 1.03 1.01
0.44 0.42 0.42 0.44 0.49 0.52 0.43 0.48 0.47 0.42 0.45 0.52 0.61 0.59 0.60 0.69 0.74 0.66 0.43 0.18 0.16 0.32 0.29 0.36 0.40 0.50 0.45 0.40 0.43 0.43 0.46 0.50 0.41 0.43 0.54 0.51 0.49 0.41 0.34 0.29 0.28 0.28 0.31 0.29 0.17 0.22 0.25 0.24 0.24 0.24 0.24 0.23 0.25 0.33 0.42 0.44 0.45 0.55 0.78 0.84 0.85 0.86 0.87 0.89 0.89 0.87 0.93 0.89 0.80 0.98 1.11 0.86 0.86 1.02 1.22 1.25 1.14 1.16 1.14 1.12 1.08 1.03 1.02 1.03 1.04 1.05 1.06 1.05
0.44 0.42 0.42 0.46 0.50 0.51 0.55 0.49 0.49 0.44 0.53 0.60 0.62 0.63 0.63 0.73 0.66 0.48 0.33 0.17 0.26 0.30 0.40 0.32 0.48 0.43 0.42 0.43 0.40 0.43 0.45 0.53 0.46 0.47 0.51 0.51 0.51 0.44 0.35 0.34 0.34 0.34 0.37 0.33 0.24 0.26 0.30 0.29 0.29 0.28 0.25 0.22 0.28 0.35 0.40 0.44 0.48 0.75 0.85 0.96 0.99 0.99 0.96 0.95 0.88 0.86 0.89 0.79 0.68 0.85 0.99 0.77 0.81 1.02 1.07 1.20 1.15 1.11 1.13 1.17 1.16 1.09 1.04 1.04 1.04 1.05 1.08 1.10
0.43 0.43 0.44 0.47 0.48 0.45 0.48 0.56 0.48 0.52 0.61 0.65 0.63 0.62 0.68 0.65 0.52 0.33 0.26 0.17 0.33 0.23 0.31 0.33 0.36 0.34 0.40 0.37 0.40 0.42 0.42 0.48 0.52 0.50 0.49 0.43 0.45 0.46 0.42 0.42 0.36 0.34 0.32 0.34 0.30 0.30 0.32 0.34 0.34 0.31 0.27 0.30 0.36 0.40 0.42 0.46 0.62 0.88 0.88 0.84 0.88 0.89 0.87 0.89 0.89 0.91 0.81 0.64 0.70 0.91 0.97 0.87 0.71 0.92 1.00 1.01 1.04 1.16 1.20 1.22 1.25 1.21 1.14 1.09 1.08 1.07 1.08 1.10
0.43 0.44 0.44 0.49 0.37 0.44 0.47 0.38 0.47 0.63 0.62 0.60 0.59 0.62 0.62 0.51 0.33 0.26 0.18 0.23 0.35 0.26 0.32 0.30 0.31 0.40 0.35 0.34 0.36 0.42 0.44 0.44 0.46 0.48 0.43 0.44 0.37 0.37 0.38 0.33 0.37 0.32 0.31 0.31 0.28 0.29 0.31 0.30 0.29 0.33 0.37 0.45 0.51 0.48 0.56 0.59 0.70 0.73 0.76 0.75 0.77 0.76 0.81 0.74 0.79 0.90 0.68 0.59 0.78 0.93 0.96 0.97 0.68 0.82 1.02 1.15 1.25 1.28 1.25 1.19 1.24 1.22 1.19 1.12 1.09 1.09 1.10 1.12
0.43 0.45 0.46 0.45 0.48 0.52 0.36 0.38 0.50 0.60 0.56 0.56 0.56 0.55 0.48 0.27 0.35 0.20 0.18 0.38 0.20 0.21 0.22 0.24 0.31 0.34 0.36 0.36 0.39 0.39 0.39 0.45 0.46 0.44 0.39 0.39 0.35 0.29 0.29 0.27 0.31 0.25 0.23 0.25 0.25 0.29 0.26 0.26 0.29 0.31 0.40 0.44 0.55 0.51 0.66 0.77 0.80 0.77 0.76 0.75 0.57 0.56 0.56 0.46 0.63 0.53 0.57 0.59 0.81 0.92 0.97 0.87 0.80 0.91 1.06 1.14 1.19 1.27 1.32 1.31 1.28 1.26 1.24 1.18 1.12 1.11 1.11 1.14
0.44 0.44 0.45 0.48 0.50 0.43 0.44 0.46 0.53 0.54 0.54 0.53 0.52 0.52 0.35 0.25 0.17 0.23 0.25 0.27 0.18 0.24 0.22 0.26 0.25 0.31 0.35 0.35 0.37 0.42 0.45 0.39 0.44 0.42 0.40 0.38 0.31 0.31 0.32 0.33 0.34 0.30 0.22 0.27 0.26 0.25 0.25 0.29 0.30 0.38 0.47 0.55 0.48 0.41 0.58 0.60 0.74 0.73 0.67 0.65 0.53 0.46 0.42 0.37 0.48 0.60 0.64 0.76 0.95 0.90 1.01 0.81 0.97 1.04 1.15 1.16 1.19 1.25 1.32 1.37 1.39 1.33 1.29 1.25 1.17 1.14 1.13 1.14
0.44 0.44 0.39 0.48 0.48 0.47 0.47 0.52 0.52 0.54 0.50 0.51 0.49 0.41 0.32 0.20 0.19 0.34 0.28 0.29 0.24 0.27 0.26 0.26 0.27 0.32 0.35 0.33 0.36 0.42 0.38 0.43 0.43 0.38 0.38 0.34 0.33 0.30 0.34 0.35 0.33 0.31 0.29 0.29 0.25 0.26 0.22 0.21 0.28 0.36 0.38 0.63 0.48 0.42 0.45 0.52 0.65 0.66 0.74 0.65 0.55 0.47 0.41 0.33 0.43 0.41 0.49 0.61 0.79 0.99 0.79 0.71 0.75 0.90 1.20 1.21 1.27 1.28 1.34 1.42 1.45 1.42 1.39 1.37 1.29 1.21 1.16 1.14
0.45 0.44 0.44 0.45 0.47 0.47 0.49 0.52 0.54 0.55 0.51 0.47 0.41 0.31 0.21 0.21 0.27 0.25 0.25 0.26 0.27 0.28 0.26 0.30 0.29 0.30 0.33 0.37 0.40 0.41 0.41 0.40 0.44 0.39 0.36 0.34 0.32 0.34 0.34 0.34 0.36 0.35 0.33 0.26 0.29 0.30 0.28 0.29 0.34 0.45 0.54 0.60 0.53 0.53 0.54 0.56 0.65 0.77 0.81 0.80 0.64 0.51 0.60 0.45 0.54 0.55 0.60 0.63 0.66 0.77 0.72 0.87 0.87 1.22 1.32 1.36 1.34 1.33 1.33 1.35 1.42 1.42 1.40 1.40 1.33 1.22 1.16 1.15
0.43 0.43 0.42 0.37 0.39 0.41 0.49 0.53 0.53 0.52 0.45 0.43 0.33 0.26 0.24 0.28 0.24 0.30 0.26 0.32 0.29 0.26 0.27 0.29 0.29 0.30 0.30 0.35 0.39 0.39 0.44 0.39 0.42 0.38 0.36 0.36 0.38 0.36 0.40 0.40 0.38 0.39 0.35 0.30 0.36 0.30 0.30 0.30 0.38 0.42 0.62 0.64 0.63 0.71 0.66 0.65 0.44 0.71 0.76 0.59 0.63 0.76 0.64 0.59 0.63 0.70 0.72 0.66 0.58 0.82 0.76 0.85 1.09 1.11 1.24 1.29 1.29 1.30 1.32 1.31 1.34 1.39 1.40 1.39 1.35 1.28 1.20 1.18
0.37 0.43 0.30 0.40 0.40 0.48 0.52 0.54 0.52 0.48 0.47 0.42 0.31 0.26 0.32 0.33 0.36 0.32 0.34 0.29 0.26 0.28 0.26 0.20 0.25 0.26 0.28 0.29 0.32 0.36 0.38 0.41 0.41 0.38 0.32 0.40 0.35 0.41 0.39 0.40 0.43 0.44 0.46 0.41 0.35 0.39 0.31 0.33 0.38 0.37 0.47 0.71 0.84 0.79 0.71 0.68 0.71 0.72 0.58 0.65 0.79 0.84 0.76 0.59 0.45 0.55 0.54 0.50 0.59 0.72 0.65 0.71 0.73 0.66 1.11 1.16 1.17 1.23 1.28 1.29 1.31 1.36 1.39 1.36 1.36 1.32 1.27 1.22
0.36 0.37 0.39 0.39 0.42 0.51 0.54 0.55 0.49 0.47 0.46 0.37 0.30 0.33 0.41 0.32 0.36 0.34 0.33 0.31 0.28 0.27 0.23 0.22 0.27 0.30 0.29 0.30 0.30 0.33 0.38 0.35 0.38 0.40 0.35 0.39 0.34 0.46 0.40 0.39 0.42 0.41 0.43 0.47 0.37 0.38 0.39 0.30 0.36 0.39 0.45 0.68 0.86 0.78 0.78 0.77 0.79 0.61 0.60 0.86 0.59 0.50 0.44 0.59 0.54 0.40 0.42 0.45 0.52 0.61 0.68 0.70 0.75 0.76 0.99 0.99 1.04 1.11 1.19 1.28 1.30 1.27 1.32 1.34 1.35 1.33 1.33 1.30
0.42 0.40 0.32 0.39 0.52 0.54 0.52 0.56 0.48 0.44 0.39 0.33 0.32 0.29 0.36 0.36 0.37 0.34 0.33 0.29 0.27 0.26 0.22 0.26 0.27 0.32 0.33 0.31 0.33 0.35 0.36 0.35 0.40 0.39 0.34 0.38 0.34 0.42 0.41 0.42 0.40 0.42 0.45 0.46 0.40 0.41 0.42 0.33 0.33 0.41 0.39 0.59 0.67 0.67 0.55 0.57 0.62 0.63 0.70 0.71 0.75 0.65 0.52 0.47 0.50 0.57 0.53 0.48 0.49 0.50 0.60 0.54 0.72 0.78 0.93 0.96 1.03 1.09 1.14 1.19 1.25 1.28 1.30 1.34 1.36 1.36 1.36 1.31
0.43 0.36 0.35 0.49 0.58 0.57 0.56 0.53 0.45 0.43 0.38 0.31 0.32 0.32 0.39 0.33 0.34 0.34 0.36 0.28 0.25 0.25 0.24 0.27 0.32 0.31 0.33 0.33 0.34 0.33 0.38 0.38 0.39 0.40 0.42 0.42 0.39 0.44 0.41 0.42 0.39 0.40 0.43 0.46 0.42 0.46 0.39 0.41 0.31 0.37 0.45 0.57 0.50 0.58 0.51 0.53 0.43 0.49 0.54 0.56 0.60 0.59 0.69 0.64 0.63 0.54 0.50 0.48 0.48 0.49 0.46 0.54 0.71 0.91 0.93 0.97 1.04 1.10 1.12 1.12 1.19 1.29 1.32 1.34 1.38 1.41 1.41 1.36
0.56 0.41 0.40 0.57 0.62 0.62 0.57 0.49 0.40 0.36 0.36 0.39 0.40 0.36 0.37 0.34 0.35 0.34 0.32 0.30 0.28 0.29 0.27 0.28 0.31 0.31 0.32 0.32 0.33 0.36 0.35 0.39 0.41 0.40 0.42 0.43 0.42 0.34 0.41 0.40 0.42 0.38 0.43 0.43 0.43 0.43 0.39 0.40 0.34 0.37 0.41 0.46 0.48 0.53 0.56 0.52 0.48 0.48 0.49 0.48 0.53 0.49 0.48 0.41 0.45 0.60 0.57 0.50 0.47 0.47 0.44 0.57 0.79 1.01 0.99 1.01 1.08 1.11 1.16 1.17 1.20 1.28 1.36 1.38 1.38 1.42 1.44 1.38
0.45 0.37 0.43 0.62 0.65 0.64 0.52 0.39 0.40 0.44 0.39 0.35 0.34 0.37 0.35 0.43 0.37 0.34 0.31 0.27 0.26 0.26 0.33 0.30 0.31 0.34 0.34 0.33 0.34 0.35 0.37 0.39 0.40 0.39 0.43 0.42 0.45 0.41 0.41 0.45 0.43 0.43 0.41 0.38 0.41 0.45 0.45 0.46 0.41 0.34 0.35 0.38 0.43 0.47 0.49 0.56 0.50 0.49 0.49 0.46 0.53 0.51 0.53 0.48 0.40 0.47 0.55 0.56 0.62 0.58 0.49 0.55 0.93 1.06 1.06 1.07 1.12 1.15 1.20 1.27 1.28 1.32 1.36 1.39 1.39 1.41 1.45 1.42
0.41 0.43 0.51 0.60 0.70 0.60 0.45 0.37 0.45 0.42 0.38 0.40 0.43 0.41 0.42 0.39 0.35 0.34 0.27 0.26 0.23 0.28 0.28 0.27 0.28 0.30 0.35 0.34 0.35 0.35 0.36 0.36 0.37 0.37 0.42 0.43 0.44 0.44 0.45 0.42 0.42 0.41 0.41 0.40 0.44 0.48 0.50 0.44 0.39 0.37 0.38 0.42 0.46 0.49 0.49 0.51 0.52 0.46 0.43 0.44 0.47 0.48 0.53 0.53 0.49 0.54 0.49 0.54 0.50 0.53 0.46 0.60 0.95 1.10 1.11 1.13 1.18 1.20 1.26 1.36 1.39 1.39 1.39 1.39 1.37 1.39 1.40 1.40
0.46 0.46 0.51 0.64 0.70 0.60 0.41 0.30 0.32 0.37 0.39 0.43 0.41 0.37 0.40 0.36 0.33 0.30 0.25 0.25 0.23 0.23 0.22 0.22 0.26 0.28 0.31 0.38 0.37 0.35 0.38 0.32 0.37 0.38 0.39 0.43 0.47 0.44 0.44 0.42 0.44 0.41 0.40 0.43 0.40 0.48 0.40 0.46 0.42 0.34 0.33 0.36 0.38 0.41 0.39 0.46 0.53 0.47 0.43 0.44 0.42 0.43 0.49 0.52 0.50 0.58 0.45 0.49 0.50 0.47 0.42 0.55 0.91 1.12 1.14 1.16 1.20 1.18 1.20 1.40 1.50 1.42 1.41 1.38 1.38 1.39 1.41 1.43
0.50 0.54 0.57 0.60 0.70 0.59 0.41 0.41 0.40 0.38 0.38 0.38 0.39 0.35 0.34 0.34 0.34 0.28 0.26 0.24 0.24 0.23 0.22 0.24 0.26 0.29 0.31 0.37 0.37 0.39 0.40 0.37 0.34 0.40 0.39 0.40 0.44 0.48 0.45 0.45 0.46 0.44 0.49 0.48 0.50 0.54 0.44 0.46 0.41 0.33 0.30 0.29 0.28 0.29 0.29 0.34 0.43 0.50 0.52 0.51 0.46 0.37 0.38 0.38 0.34 0.44 0.37 0.47 0.52 0.47 0.48 0.72 0.96 1.08 1.13 1.17 1.20 1.20 1.23 1.32 1.48 1.48 1.40 1.37 1.38 1.43 1.47 1.49
0.43 0.37 0.47 0.53 0.65 0.60 0.54 0.57 0.52 0.48 0.43 0.43 0.38 0.36 0.36 0.32 0.31 0.29 0.27 0.25 0.25 0.23 0.25 0.24 0.27 0.29 0.30 0.33 0.34 0.36 0.37 0.41 0.38 0.36 0.39 0.38 0.41 0.43 0.45 0.46 0.46 0.48 0.55 0.59 0.55 0.53 0.47 0.51 0.49 0.46 0.42 0.37 0.38 0.40 0.43 0.46 0.52 0.49 0.53 0.58 0.49 0.42 0.34 0.33 0.33 0.32 0.30 0.41 0.45 0.54 0.60 0.71 0.81 0.96 1.04 1.14 1.20 1.21 1.21 1.24 1.28 1.34 1.39 1.42 1.42 1.44 1.50 1.54
0.56 0.43 0.48 0.44 0.55 0.54 0.53 0.55 0.52 0.52 0.44 0.51 0.38 0.38 0.33 0.32 0.30 0.28 0.29 0.23 0.25 0.27 0.26 0.25 0.26 0.26 0.28 0.31 0.32 0.34 0.38 0.38 0.41 0.39 0.39 0.39 0.41 0.43 0.46 0.44 0.47 0.47 0.51 0.50 0.57 0.53 0.50 0.48 0.50 0.50 0.51 0.53 0.54 0.53 0.60 0.62 0.57 0.62 0.57 0.54 0.55 0.45 0.34 0.28 0.25 0.24 0.34 0.38 0.36 0.59 0.73 0.66 0.79 0.94 1.03 1.10 1.20 1.25 1.31 1.34 1.32 1.35 1.37 1.38 1.40 1.45 1.52 1.58
0.45 0.55 0.64 0.73 0.54 0.47 0.45 0.46 0.52 0.50 0.51 0.52 0.42 0.41 0.34 0.32 0.29 0.25 0.27 0.26 0.24 0.23 0.23 0.28 0.30 0.29 0.30 0.30 0.33 0.31 0.35 0.36 0.38 0.36 0.41 0.41 0.39 0.40 0.40 0.45 0.43 0.47 0.47 0.46 0.54 0.52 0.49 0.45 0.47 0.50 0.47 0.62 0.66 0.68 0.70 0.66 0.63 0.63 0.63 0.59 0.55 0.57 0.43 0.31 0.33 0.33 0.32 0.27 0.29 0.60 0.72 0.69 0.87 0.98 1.07 1.15 1.22 1.24 1.30 1.36 1.42 1.48 1.49 1.51 1.51 1.49 1.50 1.56
0.59 0.67 0.64 0.82 0.56 0.65 0.59 0.58 0.58 0.55 0.48 0.49 0.45 0.40 0.35 0.33 0.28 0.28 0.26 0.24 0.27 0.27 0.28 0.26 0.27 0.29 0.30 0.33 0.33 0.33 0.35 0.32 0.33 0.37 0.37 0.38 0.36 0.37 0.36 0.39 0.42 0.46 0.46 0.46 0.48 0.53 0.50 0.47 0.48 0.48 0.47 0.60 0.66 0.72 0.71 0.66 0.65 0.61 0.60 0.63 0.64 0.60 0.56 0.51 0.46 0.46 0.40 0.39 0.52 0.65 0.75 0.76 0.93 1.01 1.11 1.19 1.30 1.32 1.35 1.42 1.44 1.40 1.39 1.43 1.45 1.47 1.50 1.57
0.45 0.47 0.47 0.65 0.67 0.65 0.65 0.62 0.59 0.54 0.47 0.50 0.40 0.41 0.38 0.33 0.30 0.29 0.29 0.27 0.26 0.27 0.28 0.26 0.29 0.29 0.30 0.32 0.32 0.30 0.34 0.35 0.36 0.34 0.37 0.37 0.36 0.36 0.36 0.37 0.37 0.42 0.44 0.41 0.44 0.50 0.47 0.45 0.51 0.46 0.45 0.53 0.61 0.70 0.70 0.63 0.58 0.60 0.66 0.70 0.71 0.70 0.63 0.60 0.56 0.57 0.59 0.60 0.68 0.71 0.73 0.75 1.03 1.18 1.17 1.27 1.34 1.35 1.34 1.32 1.35 1.40 1.42 1.40 1.40 1.42 1.47 1.54
0.58 0.69 0.71 0.52 0.43 0.52 0.63 0.61 0.53 0.52 0.46 0.47 0.44 0.44 0.39 0.38 0.34 0.31 0.30 0.33 0.29 0.27 0.27 0.27 0.30 0.30 0.29 0.27 0.26 0.28 0.33 0.35 0.36 0.36 0.38 0.37 0.34 0.36 0.34 0.35 0.39 0.37 0.40 0.40 0.41 0.44 0.45 0.47 0.52 0.47 0.42 0.47 0.58 0.61 0.57 0.57 0.61 0.59 0.63 0.67 0.68 0.65 0.57 0.64 0.59 0.70 0.62 0.60 0.70 0.68 0.63 0.70 1.00 1.16 1.20 1.24 1.27 1.27 1.26 1.32 1.35 1.38 1.43 1.44 1.42 1.45 1.50 1.56
0.62 0.74 0.77 0.65 0.40 0.55 0.52 0.57 0.56 0.51 0.45 0.53 0.51 0.49 0.41 0.38 0.39 0.36 0.31 0.34 0.33 0.31 0.30 0.29 0.31 0.29 0.27 0.25 0.24 0.26 0.30 0.34 0.35 0.38 0.39 0.40 0.37 0.38 0.39 0.40 0.41 0.38 0.38 0.37 0.42 0.39 0.41 0.45 0.45 0.43 0.38 0.43 0.52 0.57 0.54 0.53 0.49 0.46 0.53 0.64 0.70 0.74 0.78 0.78 0.77 0.83 0.81 0.81 0.66 0.57 0.64 0.91 1.04 1.15 1.11 1.14 1.22 1.23 1.24 1.30 1.31 1.35 1.38 1.40 1.43 1.48 1.53 1.60
Wind_Speed
10 11 11 11 11 11 10 10 9 9 9 9 9 9 9 9 9 9 9 10 10 11 11 11 11 11 11 11 11 12 12 12 12 12 12 12 12 13 13 12 12 13 11 9 9 9 8 8 8 8 7 7 6 7 6 5 4 3 4 4 5 5 6 7 8 11 12 12 12 13 11 9 9 7 6 7 7 8 9 8 9 9 9 10 11 14 14 13
11 11 11 12 12 12 11 11 10 10 10 10 10 10 10 9 9 9 10 10 10 11 11 11 11 11 11 11 12 12 12 12 13 13 13 13 12 13 13 13 13 13 12 10 11 10 9 9 9 8 8 7 7 7 6 5 3 3 3 4 5 6 5 7 9 12 13 13 13 13 12 10 10 8 7 8 8 9 9 9 11 11 11 12 14 14 13 13
11 11 12 12 12 12 12 12 11 11 11 10 10 10 10 10 10 10 10 10 10 11 11 11 11 12 12 12 12 12 12 12 12 12 12 12 13 13 13 14 13 13 13 11 12 11 10 10 10 9 8 7 8 7 6 5 4 4 3 4 6 5 3 6 10 15 14 14 14 13 13 11 11 10 8 8 8 9 9 9 11 12 12 14 15 14 13 13
12 12 12 13 13 13 13 12 12 12 11 11 11 10 10 10 10 10 10 10 10 10 11 11 11 11 12 12 12 12 12 11 11 11 10 10 11 13 13 14 13 13 13 12 12 12 11 10 10 9 8 7 8 7 6 6 5 4 3 4 5 3 1 5 12 16 15 15 14 13 13 12 11 10 9 8 8 8 8 10 11 13 14 15 15 14 13 12
12 13 13 13 14 14 13 13 12 12 12 11 11 11 11 10 11 10 10 10 10 10 10 11 11 11 12 12 12 11 11 10 10 10 10 9 10 12 14 14 14 13 13 12 12 13 12 10 9 9 8 8 8 7 6 7 5 4 4 4 3 2 2 8 11 13 14 14 14 12 14 13 11 11 10 8 7 7 9 11 12 13 15 15 15 14 13 12
13 13 14 14 14 14 14 14 13 12 12 12 11 11 11 11 11 11 11 11 11 11 11 11 11 11 12 12 12 11 10 10 11 11 10 10 11 12 14 14 14 14 13 12 13 13 13 12 10 10 9 8 8 7 7 7 6 4 4 4 3 2 4 8 9 11 13 13 13 12 13 14 12 11 11 9 6 6 9 10 12 14 15 16 15 14 13 12
14 14 14 15 15 15 15 14 14 13 13 12 12 12 12 12 12 11 12 11 11 11 11 12 11 12 12 12 11 11 11 11 12 11 11 10 11 12 13 14 14 14 14 13 13 13 14 13 12 11 9 8 8 8 7 8 7 5 4 3 3 3 5 7 8 10 12 13 13 13 13 13 12 11 10 9 7 8 10 11 12 13 14 16 15 14 13 12
14 14 15 15 15 15 15 15 14 14 13 13 13 13 12 12 12 12 12 12 12 12 12 12 12 12 12 11 11 12 12 12 12 12 11 10 11 13 13 14 15 15 16 15 14 14 14 14 13 12 9 9 9 8 8 8 7 6 5 4 3 3 5 7 8 10 12 12 13 13 13 13 13 10 9 9 10 11 12 11 12 13 14 15 15 14 13 12
15 15 15 15 16 16 16 15 15 14 14 14 13 13 13 13 13 13 12 13 13 13 13 13 13 13 12 12 12 12 12 12 12 12 11 11 11 13 14 14 15 16 16 16 15 15 15 15 15 13 10 9 9 9 9 8 8 7 5 4 4 4 6 8 8 10 12 12 12 13 13 13 12 9 8 10 13 13 13 13 13 14 15 15 14 14 13 12
15 15 15 16 16 16 16 16 15 15 14 14 14 14 14 13 13 13 13 13 13 13 13 13 13 13 13 12 11 11 12 11 11 11 11 12 12 13 14 15 16 17 17 17 16 16 16 16 15 14 11 10 10 9 10 10 8 6 4 3 3 4 6 8 9 11 13 12 12 13 12 12 12 9 9 12 14 15 15 14 14 14 15 15 14 13 13 12
15 16 16 16 16 16 16 16 16 15 15 15 14 14 14 14 13 13 13 13 13 13 13 13 13 12 13 13 12 12 12 11 11 11 11 13 14 14 15 16 16 18 18 17 17 18 17 16 14 13 11 10 10 8 9 9 7 6 5 3 3 4 5 8 10 12 13 11 12 14 12 12 13 10 10 13 15 16 16 15 14 14 14 14 14 13 12 11
16 16 16 16 17 17 16 16 16 16 15 15 14 14 14 14 14 13 13 13 13 13 13 13 12 12 13 13 13 13 12 12 12 12 13 13 15 16 16 16 17 18 19 18 18 19 19 17 14 13 12 10 9 8 8 8 8 6 5 4 4 4 6 8 10 12 12 10 12 15 12 12 14 12 12 15 16 16 16 15 14 13 13 14 14 13 12 11
16 16 17 17 17 17 17 17 16 16 15 15 14 14 14 14 14 14 14 14 14 13 13 13 13 13 13 13 13 12 13 14 14 14 14 14 15 16 16 17 17 18 19 19 18 19 20 19 16 14 13 10 10 9 8 8 7 6 6 5 5 5 8 9 9 11 12 11 12 14 13 13 14 12 14 15 15 16 16 15 14 13 13 13 13 13 12 11
17 17 17 17 17 17 17 17 16 15 15 14 14 14 14 14 14 14 14 14 14 13 13 12 12 12 12 13 12 11 13 14 14 15 15 14 15 16 17 17 17 18 19 20 19 19 20 20 18 15 14 13 11 10 9 8 7 7 7 6 6 7 9 9 9 11 12 11 12 13 13 14 13 12 15 16 16 16 16 15 14 13 13 14 13 13 12 11
17 17 17 17 17 17 17 17 16 15 15 14 14 15 15 15 15 14 14 14 13 12 12 11 11 12 12 12 12 12 13 13 14 15 15 15 15 15 16 16 17 18 19 20 21 19 19 20 18 16 14 14 13 11 10 9 8 8 8 7 6 7 9 9 10 11 11 12 14 14 12 12 11 13 15 16 17 16 16 15 14 13 14 14 14 13 12 12
17 17 17 17 17 17 17 16 15 15 14 14 15 15 15 15 14 14 13 13 13 12 11 11 11 11 11 12 12 12 12 13 14 14 15 16 16 16 16 16 16 18 19 20 21 20 19 19 18 17 15 14 13 12 10 9 9 8 8 8 7 7 9 10 10 11 11 12 14 14 12 12 11 13 15 16 17 16 15 15 14 14 14 14 14 13 12 12
17 17 17 17 17 17 16 15 15 14 14 15 15 15 15 14 13 13 12 12 12 11 11 11 11 11 11 12 12 12 12 13 13 13 13 15 16 16 15 16 16 17 19 20 21 21 20 19 18 18 16 14 14 13 11 10 10 9 8 8 8 8 10 11 11 12 12 11 13 12 11 12 12 14 16 17 17 16 14 14 14 15 14 14 14 13 13 13
17 17 17 17 17 16 15 15 14 14 14 15 15 15 14 12 12 12 11 11 11 11 11 11 11 11 12 12 11 12 13 13 12 11 12 14 16 16 15 16 16 17 18 19 20 21 20 20 19 18 17 16 15 14 13 12 11 11 10 9 8 8 11 12 11 13 13 11 12 12 11 12 13 14 16 17 16 15 14 14 15 15 15 14 14 13 13 13
17 17 17 17 16 15 15 14 14 13 14 14 13 13 12 11 12 11 11 11 11 11 11 11 11 10 12 14 13 13 13 12 11 11 12 13 14 15 15 15 16 17 18 18 20 21 21 20 19 19 18 18 17 17 15 13 11 12 11 10 9 9 10 11 11 12 14 12 12 12 13 14 15 15 17 17 14 14 15 15 15 15 15 15 14 13 13 14
16 16 16 17 16 14 14 14 13 13 13 12 12 12 11 11 11 11 11 12 11 11 12 12 11 12 13 14 13 12 12 11 11 11 11 12 13 14 14 14 15 17 18 19 20 20 21 21 21 21 20 19 19 19 17 13 11 11 10 9 10 9 9 9 11 12 13 13 12 12 13 16 16 15 17 17 13 13 16 15 16 16 15 15 14 14 14 14
16 16 16 16 15 14 13 13 12 12 12 11 11 11 11 11 11 11 12 12 12 11 12 11 10 11 12 12 11 10 10 10 10 10 10 11 11 11 13 13 14 16 18 19 20 20 20 22 23 22 21 20 20 20 18 15 13 12 11 10 10 10 8 8 10 12 13 13 13 13 13 16 17 17 17 15 13 14 17 17 16 16 16 15 15 15 15 14
16 16 16 15 14 13 13 12 12 12 11 11 11 11 11 12 11 11 11 12 13 11 10 10 9 9 10 10 10 8 7 7 8 9 9 9 9 10 11 11 13 17 18 18 18 19 20 22 23 22 21 21 20 20 19 17 15 13 11 11 11 10 9 8 9 11 12 14 14 13 14 15 16 16 16 15 13 14 17 18 17 17 16 16 16 16 15 14
15 15 15 14 13 13 12 12 11 11 10 10 11 11 12 12 12 12 11 10 12 11 9 9 8 9 9 8 7 5 4 6 6 7 8 9 9 10 10 11 13 15 16 17 19 19 19 20 21 22 21 22 21 21 20 18 16 14 13 12 12 11 11 10 10 11 12 14 15 14 14 15 16 16 17 16 15 14 16 20 19 17 17 17 16 17 16 15
15 15 15 14 13 12 12 12 10 9 10 10 11 11 12 13 13 12 11 9 10 11 9 8 8 8 7 6 4 3 4 5 6 6 8 9 9 9 10 11 12 14 16 17 18 19 19 19 19 20 21 22 22 22 21 19 17 16 15 14 13 13 12 10 10 11 12 12 15 14 13 15 18 19 20 18 16 15 16 19 20 18 18 17 16 17 17 16
15 14 14 13 13 12 12 10 8 8 10 10 9 11 13 14 12 11 10 9 9 10 10 8 8 7 6 4 3 3 4 5 6 6 7 9 9 9 9 10 11 12 15 16 16 17 19 19 19 19 20 22 23 23 22 21 18 17 16 16 14 13 11 10 10 11 11 12 15 16 14 15 18 21 22 19 16 15 15 18 20 19 18 18 17 17 17 16
15 14 14 13 12 12 10 8 7 8 10 9 9 11 13 14 12 10 9 9 9 10 9 8 6 6 5 3 2 2 2 4 6 6 6 9 10 9 8 9 10 11 13 13 14 16 17 18 19 20 20 22 23 23 23 21 18 17 17 16 14 13 12 12 13 12 12 13 14 15 14 14 17 21 23 21 18 17 15 17 21 20 19 19 18 18 17 17
14 14 13 12 12 10 8 6 7 8 8 8 10 12 14 14 12 10 9 9 9 9 8 7 6 5 4 3 2 1 2 4 4 4 6 9 9 9 9 9 9 10 11 11 13 16 16 16 18 19 20 21 23 23 24 22 19 18 17 15 14 14 13 14 14 12 12 12 12 14 13 12 16 21 23 22 19 18 17 17 20 21 20 20 20 19 18 17
14 13 12 12 10 8 7 7 7 7 7 8 11 12 14 13 11 9 9 7 8 8 6 6 5 4 4 3 1 2 3 3 3 4 6 8 8 8 9 10 10 10 10 10 12 15 15 15 17 18 18 20 22 23 23 21 19 18 16 14 14 13 12 12 13 12 12 11 12 15 14 11 14 19 21 22 21 21 20 19 20 21 21 21 21 20 19 18
14 13 12 11 9 7 6 6 6 6 7 9 11 13 14 13 10 9 8 7 8 8 6 5 5 4 4 4 2 2 3 2 2 4 5 7 8 8 8 10 11 10 10 11 13 14 15 16 17 17 18 20 21 22 22 21 19 17 15 13 12 11 10 10 11 12 11 11 13 16 16 12 11 17 22 23 24 23 21 19 20 21 21 21 21 21 20 19
14 12 11 10 8 6 6 6 7 7 8 9 11 13 13 11 9 9 8 7 8 7 5 4 4 3 3 4 4 3 2 3 3 4 5 6 8 8 8 10 10 9 10 11 13 14 15 16 16 17 19 20 19 19 20 21 20 17 16 14 13 11 10 9 9 10 10 11 12 15 17 13 10 15 22 24 24 24 23 21 19 20 21 22 22 21 20 20
13 12 11 9 7 6 5 6 6 6 8 10 11 12 10 9 9 8 7 8 8 8 6 4 4 3 2 3 4 3 2 3 4 3 4 5 7 8 8 9 8 8 8 9 11 12 13 14 15 17 19 18 17 17 18 20 20 18 17 16 14 11 10 8 8 8 8 10 11 13 16 15 11 12 18 24 24 24 24 23 21 20 21 23 22 21 21 21
13 12 10 8 6 6 5 5 6 7 8 10 11 10 8 8 9 8 8 9 8 7 6 5 5 4 3 3 4 3 2 3 3 3 4 5 6 8 9 9 9 8 8 9 9 10 12 14 14 15 18 19 18 17 18 18 19 19 18 18 15 11 9 9 8 8 9 9 10 12 14 15 13 12 14 21 25 27 26 25 23 22 22 23 23 22 22 22
13 12 9 7 6 6 6 6 7 8 9 9 9 8 7 7 8 8 8 8 7 7 7 6 5 2 2 3 4 3 3 2 2 2 3 4 5 7 8 9 10 9 9 10 9 8 10 12 12 13 17 19 19 20 20 19 20 20 19 18 16 12 10 10 10 9 9 9 9 10 13 12 12 11 13 17 23 27 29 27 26 24 23 23 24 23 22 23
13 11 8 7 6 6 6 6 6 7 8 8 7 7 7 7 7 8 8 7 6 7 7 6 4 1 1 2 3 2 2 3 2 1 1 2 4 5 6 8 9 9 10 10 9 9 10 10 12 14 16 19 19 21 21 20 19 18 18 17 16 14 12 11 11 10 9 9 9 10 11 11 9 9 11 15 18 23 28 29 27 25 23 22 23 23 23 23
13 9 7 7 6 6 6 6 6 6 7 7 6 6 7 7 7 8 8 6 6 7 7 6 4 2 1 3 3 2 1 3 2 1 1 2 4 5 6 7 9 10 10 10 9 10 11 10 11 13 16 18 18 19 20 19 17 17 18 17 15 15 12 10 11 10 9 8 8 10 11 10 10 8 8 10 15 19 24 28 29 27 25 23 23 23 23 24
11 9 8 7 6 6 5 5 5 5 5 6 6 6 6 6 7 7 7 6 6 6 7 7 5 3 3 3 3 2 1 1 1 2 3 3 5 6 7 7 8 9 10 11 10 9 10 10 9 11 15 18 17 18 20 20 17 16 18 18 16 15 12 11 10 9 9 8 8 10 10 9 10 9 8 9 12 16 20 25 30 30 28 26 24 23 23 23
10 9 8 7 6 5 4 4 4 4 4 4 5 6 6 6 6 6 7 7 7 6 5 5 4 2 3 3 2 3 2 2 1 3 4 4 5 6 6 7 9 9 10 11 10 10 10 9 8 10 15 18 17 17 18 18 16 16 18 18 16 13 12 11 10 8 8 8 8 9 10 10 9 9 9 9 11 14 16 21 28 31 30 29 27 24 23 23
10 9 7 6 6 5 4 4 4 4 4 4 5 6 6 6 6 6 7 8 7 5 3 3 3 2 1 1 3 3 2 2 3 3 4 5 6 6 5 6 9 9 9 10 10 10 10 8 8 10 14 17 16 16 17 17 16 15 16 17 15 13 12 12 10 9 9 8 8 8 9 10 10 10 10 11 12 14 15 17 24 31 31 30 30 27 24 23
9 7 6 6 5 5 4 4 4 4 4 4 5 6 6 6 7 8 8 8 5 4 3 3 2 2 0 1 2 2 1 2 3 4 4 6 6 6 5 6 8 8 9 11 10 9 9 8 8 9 13 16 16 17 19 19 16 15 14 15 15 13 12 12 11 10 9 8 8 7 6 8 10 9 10 12 12 13 14 15 20 29 32 31 31 30 26 24
8 6 6 6 5 5 4 4 4 4 3 4 5 6 7 7 8 9 9 7 3 3 3 2 2 1 1 2 2 2 1 1 2 3 3 6 6 6 5 7 8 8 9 11 10 9 9 8 7 7 12 17 18 18 20 19 18 17 15 14 15 13 11 11 11 10 9 8 8 7 7 8 8 7 9 11 11 12 14 14 17 25 32 32 31 31 29 25
7 6 6 6 4 4 4 4 4 3 4 5 5 6 7 7 8 10 9 6 3 3 2 2 2 1 2 3 3 2 1 1 1 2 1 6 7 6 5 6 7 8 8 9 10 9 9 9 7 6 11 17 17 17 18 18 17 18 16 14 14 14 12 10 10 10 9 8 8 8 7 8 8 7 8 10 10 11 13 14 16 23 30 32 31 31 30 27
6 5 6 6 4 4 3 4 4 4 4 5 6 6 7 8 8 9 8 5 4 3 2 2 2 2 3 3 2 2 1 2 1 1 1 5 9 8 6 5 5 6 8 10 11 11 9 8 7 8 12 15 16 15 16 18 17 16 16 14 13 13 13 12 10 10 10 8 7 7 6 7 7 6 6 7 9 9 10 12 16 22 29 32 32 30 29 27
6 7 7 6 5 4 3 4 5 5 5 7 7 7 8 8 8 7 6 5 4 3 3 3 3 3 3 3 2 2 1 1 1 1 1 3 8 8 7 5 4 4 7 10 12 11 9 7 6 8 10 12 13 12 12 15 16 15 15 14 14 14 13 13 12 10 10 9 8 6 6 6 6 5 5 6 7 7 7 9 15 21 26 30 31 29 28 27
8 8 8 7 6 5 4 4 5 6 8 9 9 8 9 8 7 6 6 6 5 4 4 5 4 3 3 3 2 2 2 1 1 1 1 2 7 8 5 3 3 3 5 10 13 12 9 8 5 5 8 9 9 9 10 12 15 16 15 14 16 16 14 13 12 10 10 11 10 7 6 6 5 4 4 5 5 6 5 6 12 19 23 27 29 27 26 25
9 9 9 8 6 5 5 5 5 6 9 9 9 9 9 8 6 5 5 6 5 4 4 5 5 4 3 3 2 2 2 2 1 1 0 1 4 6 5 2 2 3 5 8 12 12 10 8 6 7 9 10 11 11 11 12 13 15 14 13 15 16 16 15 13 11 11 11 10 8 7 6 5 3 3 4 5 6 5 6 11 16 20 23 24 24 24 24
8 8 9 9 7 6 7 6 5 6 7 8 8 8 7 7 7 5 4 5 5 3 3 4 4 4 3 3 2 2 2 2 2 2 1 0 0 4 6 5 3 3 2 5 9 11 11 8 7 9 11 12 12 12 12 12 13 13 12 11 13 15 16 15 14 13 13 11 10 9 8 7 4 3 3 4 4 6 6 8 11 15 18 20 21 22 22 23
9 9 9 9 8 8 8 7 6 6 7 7 7 7 6 7 7 6 4 5 4 3 3 3 3 3 4 3 3 3 4 3 3 3 3 2 2 2 3 5 5 3 2 4 8 12 12 8 7 9 9 9 10 11 12 12 12 12 11 10 10 12 13 14 14 15 14 12 10 10 9 7 5 4 4 4 5 6 6 8 11 14 16 18 19 20 22 22
10 10 9 9 9 8 8 8 8 8 8 7 7 7 7 7 6 5 4 4 3 3 2 2 2 3 4 3 3 3 4 3 4 4 4 3 3 2 2 2 4 3 3 3 6 11 13 9 8 8 7 6 7 8 10 12 11 11 10 8 8 9 10 12 14 14 13 13 12 11 9 7 6 5 4 4 5 5 6 7 9 12 14 16 17 18 20 21
10 11 11 10 10 10 9 10 9 8 8 7 7 7 7 7 6 4 4 3 3 4 2 1 2 3 2 3 3 3 3 4 4 4 5 4 3 2 2 2 3 3 4 4 5 10 13 11 9 9 8 6 6 8 10 11 10 8 8 8 8 9 9 10 11 11 11 12 12 11 9 8 7 5 4 4 5 5 5 6 7 8 11 13 15 16 18 19
10 11 12 11 11 11 11 10 9 8 7 6 7 7 7 6 6 5 3 2 3 4 3 2 3 3 2 1 2 3 5 7 5 5 6 5 4 3 3 3 3 3 3 5 6 8 11 12 11 9 9 7 7 9 10 9 8 7 6 6 7 7 7 8 9 10 11 12 12 11 10 9 7 5 4 4 4 4 4 4 5 6 8 10 12 14 15 16
10 11 11 11 11 11 10 10 8 7 7 7 7 8 7 6 6 5 4 3 3 4 3 3 4 4 3 2 2 3 5 7 7 6 7 6 6 6 5 5 5 3 3 4 6 7 9 13 13 11 9 9 9 9 9 7 6 6 4 4 6 7 7 7 8 10 11 12 12 11 10 9 8 6 4 4 3 4 3 4 4 5 7 8 10 11 12 12
10 11 11 10 11 11 10 10 9 8 8 8 8 8 8 8 8 6 5 5 4 4 4 4 4 4 4 3 4 5 6 7 7 7 7 7 6 7 7 6 5 5 4 4 5 6 7 12 15 13 11 11 11 9 9 7 7 7 6 6 8 8 8 8 8 8 10 12 13 11 10 10 9 7 5 4 3 3 4 5 5 6 6 7 8 9 10 10
Wind_Direction
2 359 356 352 348 344 340 336 332 327 323 320 317 314 310 306 302 298 295 292 290 289 289 288 287 287 285 283 281 279 279 274 271 264 256 253 247 240 236 232 228 224 226 227 222 219 219 221 221 219 220 227 235 242 244 250 266 288 319 318 303 293 262 236 210 197 189 182 182 180 177 174 172 174 166 148 138 141 143 138 143 141 136 143 148 149 148 147
360 358 355 353 349 345 341 338 334 330 325 321 318 316 312 308 304 301 297 294 292 291 289 288 287 286 285 284 282 282 281 274 270 263 255 253 246 239 233 228 227 224 224 225 223 217 214 219 218 216 218 226 233 237 240 245 257 272 305 315 305 301 266 237 205 192 187 177 175 176 176 172 171 176 168 153 145 143 140 141 143 137 136 142 146 149 150 150
356 354 352 351 348 345 341 337 334 330 326 323 319 316 314 310 307 303 300 297 295 293 291 289 287 285 284 283 283 284 282 275 268 261 258 255 243 237 231 225 226 224 223 225 224 217 214 216 214 214 217 227 232 230 234 240 254 265 291 310 308 310 267 224 192 182 179 172 171 177 178 171 172 173 166 156 147 148 150 149 148 144 146 149 150 152 153 152
351 350 348 347 345 343 340 337 333 329 326 323 319 316 313 311 309 306 303 300 298 296 294 292 289 286 285 283 283 283 280 274 264 257 260 257 241 233 228 224 226 226 225 226 225 218 217 217 214 214 217 231 233 226 229 232 247 262 277 300 307 320 253 186 177 176 177 175 174 177 177 175 177 174 167 160 152 157 162 158 155 153 153 154 154 154 155 154
347 346 344 343 342 341 339 336 332 328 325 322 319 316 313 312 309 307 305 303 301 299 296 294 291 288 286 284 284 281 277 268 259 256 259 257 241 230 226 225 226 226 224 224 224 219 218 218 216 219 222 234 231 223 231 227 236 261 273 291 298 310 154 157 166 174 177 177 176 175 177 178 176 176 177 171 164 166 163 161 159 157 156 157 157 155 156 156
344 343 342 340 340 338 337 334 331 327 324 321 319 316 313 311 309 306 304 303 301 300 298 296 293 290 288 286 282 276 271 263 258 257 256 254 243 230 225 225 226 226 224 223 224 220 219 219 218 222 225 233 227 225 232 221 230 261 270 283 274 251 167 162 169 177 179 177 178 176 177 177 172 178 184 181 183 173 160 160 159 157 157 158 159 157 157 157
341 340 339 338 338 336 335 333 329 325 322 319 317 314 313 310 308 305 303 302 300 299 298 296 295 292 291 287 279 275 271 263 259 257 255 251 242 232 226 226 226 226 225 223 223 220 218 217 218 221 224 228 226 228 229 219 230 253 257 260 253 232 192 184 179 181 185 181 180 176 174 178 173 175 182 187 192 173 160 159 156 157 157 159 160 158 158 159
338 338 337 336 335 334 333 331 328 324 320 317 314 313 311 310 307 305 303 302 300 299 297 295 294 292 292 286 279 278 270 261 260 256 251 246 239 232 228 228 227 225 225 223 223 220 216 216 216 219 223 229 229 226 221 220 235 244 245 239 235 224 200 197 188 185 188 183 182 177 177 182 180 179 185 188 180 165 161 157 153 157 159 161 162 160 161 160
337 336 335 334 333 332 331 329 326 323 319 316 314 312 310 309 307 305 303 302 300 299 296 294 292 291 290 285 282 279 266 260 263 256 247 243 240 234 231 231 227 224 224 224 223 220 218 216 216 219 223 232 234 225 214 220 238 236 232 228 225 222 201 198 193 187 186 184 183 179 181 184 183 189 193 183 171 162 162 158 153 158 162 163 163 163 162 163
336 334 333 332 331 330 329 327 325 322 319 315 313 311 309 308 307 306 304 302 301 299 297 294 291 291 288 285 285 277 265 264 265 258 251 244 240 236 235 234 228 224 224 223 222 219 218 215 216 220 223 236 237 224 217 222 232 220 208 220 241 247 214 199 193 188 183 183 185 181 180 180 181 189 189 178 170 165 164 161 157 158 163 165 166 165 163 165
335 334 332 331 330 328 327 326 323 321 319 316 314 311 310 309 308 306 304 302 300 299 297 294 292 290 287 285 281 271 265 267 266 261 257 249 241 237 239 236 229 225 222 223 222 218 217 215 217 218 222 238 233 220 221 220 212 201 193 212 257 267 228 200 188 188 185 182 186 182 176 177 181 189 187 176 170 167 166 166 163 161 162 165 168 166 165 166
334 333 332 330 328 327 325 324 322 321 320 318 315 312 311 310 308 305 303 302 301 299 297 294 293 290 289 285 274 266 264 268 268 263 258 252 245 241 241 238 230 225 221 221 222 217 215 215 218 221 227 236 226 216 220 211 203 205 205 217 245 244 219 202 191 193 191 187 185 179 176 180 187 194 186 176 172 169 168 169 169 167 165 167 169 168 167 168
334 333 331 329 327 325 324 323 322 321 320 318 316 314 312 310 308 306 304 303 301 299 297 294 293 291 291 285 273 267 266 268 267 262 256 251 248 244 241 237 231 226 222 220 220 216 215 215 219 225 230 232 224 216 212 207 208 215 217 224 238 227 211 201 195 196 191 187 186 180 179 185 192 196 182 174 174 171 170 172 173 172 171 172 173 172 172 171
333 332 331 329 326 324 323 322 322 321 320 318 317 315 313 311 309 307 306 304 301 299 296 294 293 292 290 284 276 271 270 269 266 260 253 248 248 244 240 236 230 226 222 220 219 216 215 217 221 226 230 228 218 211 211 216 219 218 221 228 232 216 203 195 194 196 187 182 183 179 179 185 194 190 177 174 174 172 172 174 175 176 176 177 178 178 176 174
333 331 330 328 325 323 323 322 322 321 320 318 317 315 313 311 310 309 307 304 302 299 297 296 295 295 293 286 279 277 274 271 268 261 253 246 244 242 237 233 228 223 221 219 218 217 216 218 221 223 226 219 207 208 217 221 221 219 220 226 225 207 201 203 199 194 188 181 180 179 180 187 194 186 177 177 176 174 175 175 177 179 179 181 182 181 179 177
332 330 329 327 325 323 323 323 322 321 320 319 318 315 313 312 311 310 307 305 304 300 300 299 297 298 293 287 286 285 279 273 270 263 253 244 239 237 234 231 227 221 218 218 216 217 218 219 221 220 217 209 205 210 213 216 221 222 218 216 214 202 199 206 201 194 191 185 185 187 185 186 192 187 180 179 178 177 178 178 180 182 183 184 184 183 181 178
331 329 328 326 325 324 323 324 323 322 322 321 319 317 315 314 313 312 309 309 308 304 302 298 298 299 290 285 288 288 286 280 272 262 250 241 236 234 231 230 227 218 216 217 216 218 219 218 219 218 213 209 212 209 206 216 222 221 216 213 215 205 199 203 202 196 193 192 193 194 190 189 190 187 182 180 180 180 182 183 183 185 186 186 185 184 182 178
330 328 327 326 325 324 324 325 324 324 325 324 322 321 320 321 321 318 314 314 313 310 306 298 299 298 288 287 288 287 288 282 272 261 246 237 234 231 229 228 224 216 215 217 216 217 218 217 215 214 211 210 211 207 206 214 214 210 211 211 212 207 202 204 204 197 192 193 197 194 192 190 187 187 185 181 182 184 186 188 187 188 188 187 186 184 181 178
329 327 326 326 325 325 325 325 325 326 328 329 329 329 330 331 328 323 321 321 318 316 309 299 297 295 286 287 288 286 285 278 269 261 244 234 230 228 226 226 221 214 213 215 215 214 214 215 214 211 210 209 208 207 207 209 206 203 207 208 205 204 205 205 204 200 195 193 197 198 195 189 186 187 186 185 189 191 190 190 190 189 189 188 186 184 181 178
328 327 326 326 325 325 325 325 326 328 331 334 336 337 337 336 333 329 328 325 320 318 312 302 295 291 288 287 285 283 284 276 263 252 241 231 224 222 224 223 218 214 212 211 214 215 212 214 215 212 210 207 206 207 207 208 204 199 203 208 203 203 207 205 202 203 202 199 199 203 199 191 188 186 186 190 198 199 193 192 191 189 188 187 185 183 182 179
327 326 325 325 325 324 325 324 326 329 332 335 340 344 342 340 339 334 332 328 323 322 315 309 301 292 288 287 285 286 285 273 255 244 236 226 218 219 223 220 213 214 214 210 213 216 213 215 217 212 208 207 206 208 209 209 205 203 205 205 202 205 208 206 206 208 209 207 203 202 199 194 190 187 190 193 199 201 195 192 193 190 188 188 185 184 183 180
326 325 325 325 325 324 324 325 327 329 331 336 343 348 346 344 341 336 336 331 326 326 319 318 316 304 298 293 287 287 279 260 248 242 229 219 218 219 220 215 209 213 214 209 211 216 216 216 217 213 209 207 208 207 209 210 208 208 209 205 205 208 206 206 211 212 214 212 207 201 198 197 196 194 198 199 201 204 197 193 194 191 188 188 186 185 183 179
326 325 325 325 324 323 324 325 327 330 334 339 344 347 347 348 344 341 342 335 328 330 326 324 322 314 310 304 288 276 262 242 237 238 224 213 215 215 212 210 207 211 212 208 209 213 216 216 215 213 209 208 209 208 208 210 210 211 209 207 209 208 209 212 211 209 211 213 208 201 197 200 201 203 207 206 205 208 201 195 194 192 190 189 188 187 185 181
325 325 324 323 323 323 322 323 325 331 336 339 342 345 348 348 346 344 344 340 335 335 332 328 328 321 310 307 292 258 244 232 230 234 219 206 209 211 208 206 206 209 211 209 208 211 216 215 210 208 207 208 210 209 208 208 211 215 211 210 211 209 213 213 205 204 207 211 206 198 198 203 202 204 207 206 206 209 202 196 196 195 192 190 188 188 188 186
326 325 324 323 323 322 322 322 325 332 335 337 341 344 345 345 345 347 347 346 340 335 335 333 329 325 314 310 292 249 241 236 235 233 217 204 203 205 205 204 203 209 213 209 207 213 217 212 205 206 207 207 208 209 208 206 210 217 216 215 213 208 208 202 196 200 204 211 208 202 204 207 204 205 206 203 206 210 203 197 198 197 194 192 189 188 189 188
326 324 323 323 323 323 323 324 328 332 333 338 341 344 345 345 346 349 351 353 344 337 342 343 334 331 324 309 276 260 265 254 242 231 218 206 203 200 201 204 203 207 211 208 209 212 210 203 201 206 209 207 207 209 208 204 207 216 215 211 209 205 202 197 197 202 207 211 209 207 209 207 205 206 206 204 207 211 207 201 199 198 196 195 193 190 189 189
326 324 324 322 323 325 322 323 327 328 333 338 341 344 345 346 347 348 349 350 345 340 342 344 346 346 332 307 271 274 266 255 250 235 213 202 204 203 201 204 204 207 207 206 212 210 205 201 202 207 209 207 207 208 205 200 204 214 212 203 203 205 202 201 203 208 212 210 207 209 210 207 208 208 205 204 208 211 209 205 201 198 197 197 196 193 191 191
326 324 323 321 322 322 316 318 323 326 331 333 338 341 342 345 348 351 353 348 343 340 335 337 348 354 347 335 276 262 257 244 249 243 214 200 203 204 207 207 201 207 208 204 211 210 205 207 206 206 208 207 206 205 201 197 203 213 210 202 205 207 206 209 211 213 214 211 210 211 208 209 213 210 204 204 208 210 209 207 203 199 198 198 198 196 194 193
325 324 322 320 320 316 311 314 318 323 326 331 337 338 340 345 348 353 356 348 341 336 328 333 335 336 354 358 318 294 286 251 238 237 216 204 207 205 211 210 201 207 211 205 210 212 208 210 209 207 208 207 203 201 198 196 204 208 200 198 203 206 208 213 216 216 215 216 217 212 207 211 218 211 206 205 207 208 206 206 205 201 199 199 199 197 195 195
325 324 320 318 317 313 310 310 311 318 326 331 335 336 342 350 354 357 351 342 342 333 320 324 321 318 356 353 329 321 297 249 244 236 221 217 220 217 215 214 205 206 214 212 213 215 214 215 213 209 207 202 197 198 198 196 197 198 197 197 198 205 210 213 219 218 216 222 224 216 210 215 226 218 212 209 207 206 204 204 205 203 201 199 200 199 197 196
324 322 317 314 312 309 308 310 313 321 327 329 332 338 347 354 1 4 347 338 342 334 324 315 308 302 320 331 318 315 287 259 256 234 226 231 231 223 217 215 208 206 219 219 214 216 218 218 214 207 203 197 193 198 197 193 193 197 203 200 196 205 211 210 218 216 218 226 225 219 214 216 229 227 217 213 208 206 206 206 204 204 202 199 200 200 198 197
324 320 313 306 303 302 300 303 315 324 326 328 334 344 352 352 355 353 342 341 342 338 333 312 297 282 278 310 307 296 296 276 264 235 225 233 230 216 209 208 205 209 220 213 210 219 218 214 210 204 199 192 191 194 194 196 199 199 201 198 195 203 210 213 219 217 221 225 221 218 213 218 232 231 217 212 209 207 209 210 208 206 203 200 200 201 200 198
323 318 311 301 293 296 296 298 312 321 326 332 338 347 357 356 349 342 341 343 337 338 338 322 307 268 250 298 302 303 319 294 269 252 230 223 218 211 210 208 201 204 212 209 213 220 214 211 204 197 198 196 192 191 193 197 200 198 198 197 194 197 204 215 222 223 224 222 218 214 211 221 237 232 215 210 210 209 209 210 210 208 205 203 202 202 200 199
321 317 311 301 291 290 291 295 309 321 330 338 342 351 359 352 341 343 344 336 332 338 341 338 334 305 229 269 285 316 324 284 254 231 232 209 197 202 212 214 204 200 204 209 212 204 199 204 203 199 202 202 198 196 195 194 195 200 201 198 197 198 202 210 214 217 216 213 209 205 209 220 227 228 219 209 208 208 208 209 209 208 207 205 203 202 201 200
321 316 309 303 295 287 283 287 303 320 333 341 350 359 357 343 338 345 340 329 335 342 341 346 354 351 296 280 295 323 316 277 252 212 241 209 190 198 205 209 206 199 197 201 203 196 193 201 210 211 204 200 199 198 193 189 192 201 200 197 201 204 203 205 209 208 199 202 210 207 217 226 221 227 227 208 204 205 205 207 207 208 207 205 203 202 201 201
320 316 310 303 296 288 281 284 297 315 330 343 356 356 347 339 340 343 335 329 332 335 337 341 354 356 310 292 299 304 336 328 242 229 265 227 197 201 205 208 208 199 191 195 200 197 197 207 216 211 200 196 197 195 192 191 194 198 200 202 205 206 202 202 209 210 200 209 221 215 224 232 225 230 225 204 202 203 203 206 207 207 206 205 205 202 201 201
319 317 311 301 293 285 277 280 292 311 328 349 356 343 338 338 336 334 330 327 323 324 332 330 334 333 300 295 276 261 315 349 284 253 258 227 203 207 213 217 208 194 190 194 197 195 198 214 221 202 194 195 195 195 197 199 196 193 199 204 203 206 208 204 206 214 213 221 224 218 225 226 221 227 218 204 203 205 206 207 207 207 205 205 206 203 201 201
318 316 310 300 291 278 272 276 287 305 321 343 341 331 338 339 332 331 326 323 323 331 339 320 314 312 284 296 275 260 294 321 310 293 244 212 206 206 209 216 203 194 198 194 189 190 190 205 215 199 193 191 188 192 198 203 201 194 196 201 199 202 208 205 204 209 213 223 224 219 225 225 222 223 214 207 208 206 206 207 207 206 204 204 205 203 202 202
319 318 312 305 292 274 268 273 287 304 316 330 330 327 334 329 324 330 329 324 326 344 344 305 300 322 276 282 283 279 291 271 310 318 240 207 208 206 200 205 198 199 207 194 185 194 190 191 207 206 197 190 187 192 194 199 202 194 193 200 201 201 203 203 207 207 205 214 220 218 223 228 228 224 212 209 212 207 205 207 206 204 203 203 204 204 203 203
319 318 310 311 299 271 266 280 295 305 305 307 313 323 332 329 323 326 329 327 320 334 335 291 282 315 285 309 313 297 308 264 297 325 244 205 204 209 201 194 196 210 214 196 189 198 194 191 204 211 197 190 190 195 195 196 198 194 193 199 202 203 203 205 211 211 204 207 214 215 225 235 233 224 212 209 210 209 208 210 208 203 201 202 203 204 204 205
317 317 307 316 308 268 271 297 300 294 290 298 307 316 326 328 324 321 321 326 323 315 310 261 254 276 279 309 320 300 297 266 289 353 254 199 192 198 198 190 203 215 211 196 194 198 196 196 206 209 193 190 196 201 200 200 199 195 197 201 200 202 202 201 209 214 210 209 210 208 223 242 239 226 218 211 209 212 213 215 212 203 200 201 202 203 204 205
309 303 299 312 303 274 287 302 296 292 286 296 304 307 314 320 320 317 313 318 326 317 309 277 255 269 280 279 293 297 255 236 276 355 235 198 188 193 200 201 217 213 201 202 205 201 194 194 209 213 198 195 204 209 205 203 200 198 203 205 202 203 201 197 204 212 210 211 214 209 220 240 240 230 222 215 210 210 215 218 213 204 199 199 200 201 202 204
299 290 293 303 291 282 301 296 292 297 289 294 300 302 309 313 313 314 306 299 302 293 298 297 272 270 286 272 273 291 248 233 251 242 257 204 197 204 213 219 231 210 198 205 206 202 195 192 208 214 200 196 202 205 203 200 198 202 211 210 206 208 206 201 204 206 204 208 208 204 214 229 240 237 220 209 204 202 209 211 203 198 196 196 198 200 201 202
291 284 287 296 288 281 286 280 284 290 291 297 302 304 309 308 302 302 296 292 290 274 274 287 277 263 273 268 254 257 241 211 214 239 312 201 205 214 222 221 221 218 211 204 199 198 195 193 199 196 188 189 194 197 197 195 194 200 209 213 212 210 204 203 207 204 204 208 199 194 208 218 230 231 205 195 192 190 191 185 183 186 189 192 195 198 200 201
288 279 280 289 288 277 270 271 277 283 291 299 301 303 309 308 302 295 293 300 299 272 262 276 267 244 253 264 251 246 226 182 178 232 35 116 205 219 222 222 240 250 235 205 195 192 187 188 188 176 179 188 192 197 199 197 197 199 204 212 215 209 202 203 206 202 207 210 197 193 205 209 217 216 187 187 186 181 174 160 166 175 181 187 192 196 200 203
282 277 279 285 286 278 272 273 279 284 292 301 302 301 304 307 307 298 297 309 304 282 272 278 264 238 245 261 246 254 251 217 195 189 183 97 231 228 221 214 229 256 227 190 192 192 186 184 183 176 180 189 193 198 200 192 190 195 201 209 213 211 206 202 200 203 208 205 199 206 207 196 203 208 184 182 177 176 174 164 164 172 178 185 193 198 203 206
274 272 275 279 281 281 278 280 289 291 290 296 301 300 301 308 309 299 296 303 297 295 299 291 274 241 239 244 233 244 257 246 227 211 220 240 250 260 238 208 211 239 218 188 194 192 185 185 191 184 181 184 188 195 194 182 177 186 196 200 207 211 206 201 206 211 208 201 204 217 211 192 192 198 185 181 175 173 177 173 172 178 183 190 198 204 208 209
271 268 268 269 271 271 270 276 286 291 293 297 298 296 299 306 306 292 285 291 297 303 296 291 305 266 235 228 222 238 251 246 239 230 228 239 245 267 296 227 221 236 224 200 193 190 186 189 196 187 176 180 182 180 179 175 173 182 189 191 200 205 200 201 211 215 210 204 206 209 201 189 186 183 179 184 179 170 172 175 178 182 188 195 202 209 212 214
272 269 266 265 265 263 263 269 274 281 291 297 295 294 295 298 295 278 269 285 303 297 267 232 298 289 241 219 210 228 236 224 231 236 225 226 237 231 245 261 260 247 223 212 206 199 193 195 200 189 178 181 179 174 174 171 171 178 187 193 196 195 194 198 206 210 204 197 194 189 184 182 184 183 182 184 180 170 169 174 179 183 190 196 203 211 217 220
276 270 267 265 264 264 263 263 264 270 282 285 282 286 290 290 284 274 270 276 278 280 268 223 243 247 235 237 221 228 224 208 210 227 215 210 223 220 221 240 253 256 227 210 214 210 200 201 203 191 181 185 183 181 178 168 162 167 181 200 200 192 194 200 204 207 200 190 185 184 181 182 188 191 184 179 176 169 168 175 182 188 193 196 202 210 217 224
277 271 269 263 259 260 259 257 257 262 272 273 272 280 287 287 281 269 270 275 255 254 250 211 211 230 249 287 278 255 234 211 213 225 214 207 219 225 230 236 236 249 242 212 218 221 210 208 206 193 186 195 194 189 186 179 174 171 175 214 216 198 190 193 196 199 198 194 191 188 186 190 197 202 194 179 168 164 175 192 194 195 197 197 202 207 212 223
281 273 269 260 253 254 253 256 259 258 261 265 270 275 276 281 284 268 255 275 279 259 236 211 205 228 252 275 275 265 247 225 226 231 217 212 223 227 231 235 231 234 233 217 220 225 216 211 209 202 197 203 208 207 204 202 200 201 206 218 217 206 193 187 189 192 196 200 199 194 193 196 201 205 203 190 177 180 197 211 213 213 211 208 210 211 210 216